Terminal Aerodrome Forecast
Issued by NWS

Home | Current Version | Previous Version | Text Only | Print | Product List | Glossary Off
Versions: 1 2 3 4 5 6 7 8 9 10 11 12 13 14 15 16 17 18

000
FTUS43 KICT 210003 AAA
TAFSLN
TAF AMD
KSLN 210003Z 2100/2124 18007KT P6SM VCSH SCT010 OVC018
     FM210400 21006KT 5SM BR BKN015
     FM210500 22006KT 5SM BR BKN025
     FM210700 23006KT 6SM BR BKN080
     FM211900 17004KT P6SM SKC
     FM212200 11005KT P6SM SCT150
      AMD NOT SKED=

USA.gov is the U.S. government's official web portal to all federal, state and local government web resources and services.